Weather History for Fayetteville, NC

Change the Weather History Date:

Saturday, August 24, 2013

  Actual Average Record
Temperature  
Mean Temperature 76 °F 79 °F  
Max Temperature 85 °F 89 °F 104 °F (1983)
Min Temperature 67 °F 69 °F 55 °F (1978)
Degree Days  
Heating Degree Days 0 0  
Month to date heating degree days 0 0  
Since 1 June heating degree days 0 0  
Since 1 July heating degree days 0 0  
Cooling Degree Days 11 14  
Month to date cooling degree days 351 361  
Year to date cooling degree days 1494 1548  
Since 1 June cooling degree days 1245 1264  
Growing Degree Days 26 (Base 50)    
Moisture  
Dew Point 64 °F    
Average Humidity 67    
Maximum Humidity 90    
Minimum Humidity 43    
Precipitation  
Precipitation 0.00 in 0.16 in 2.76 in (1966)
Month to date precipitation 5.52 4.38  
Year to date precipitation 34.54 30.32  
Sea Level Pressure  
Sea Level Pressure 30.14 in    
Wind  
Wind Speed 10 mph (NNE)    
Max Wind Speed 18 mph    
Max Gust Speed 23 mph    
Visibility 10 miles    
Events      
T = Trace of Precipitation, MM = Missing Value Source: NWS Daily Summary

Daily Weather History Graph

Daily Weather History Graph

Search for Another Location

Airport:

Trip Planner

Search our weather history database for the weather conditions in past years. The results will help you decide how hot, cold, wet, or windy it might be!

Date:

Astronomy

Aug. 24, 2013 Rise Set
Actual Time 6:42 AM EDT 7:52 PM EDT
Civil Twilight 6:16 AM EDT 8:18 PM EDT
Nautical Twilight 5:44 AM EDT 8:49 PM EDT
Astronomical Twilight 5:12 AM EDT 9:22 PM EDT
Moon 9:58 PM EDT (8/24) 10:28 AM EDT (8/24)
Length of Visible Light 14h 02m
Length of Day
13h 10m
Waning Gibbous, 84% of the Moon is Illuminated
Aug 24
Waning Gibbous
Aug 28
Last Quarter
Sep 5
New
Sep 12
First Quarter
Sep 19
Full

Hourly Weather History & Observations

Time (EDT) Temp. Heat Index Dew Point Humidity Pressure Visibility Wind Dir Wind Speed Gust Speed Precip Events Conditions
12:12 AM 75.2 °F - 69.8 °F 83% 30.05 in 10.0 mi North 10.4 mph - N/A   Mostly Cloudy
12:53 AM 75.0 °F - 70.0 °F 84% 30.04 in 10.0 mi North 9.2 mph - N/A   Overcast
1:46 AM 73.4 °F - 69.8 °F 88% 30.06 in 10.0 mi North 9.2 mph - N/A   Overcast
1:53 AM 73.9 °F - 70.0 °F 87% 30.04 in 10.0 mi North 11.5 mph - N/A   Overcast
2:26 AM 73.4 °F - 69.8 °F 88% 30.06 in 10.0 mi North 9.2 mph - N/A   Overcast
2:39 AM 73.4 °F - 69.8 °F 88% 30.06 in 10.0 mi North 8.1 mph - N/A   Overcast
2:53 AM 73.0 °F - 69.1 °F 87% 30.05 in 10.0 mi North 10.4 mph - N/A   Overcast
3:28 AM 71.6 °F - 69.8 °F 94% 30.07 in 9.0 mi North 12.7 mph - N/A   Overcast
3:53 AM 71.1 °F - 68.0 °F 90% 30.06 in 10.0 mi North 13.8 mph - N/A   Overcast
4:53 AM 70.0 °F - 66.0 °F 87% 30.08 in 10.0 mi NNE 12.7 mph - N/A   Overcast
5:50 AM 69.8 °F - 62.6 °F 78% 30.12 in 10.0 mi NNE 11.5 mph - N/A   Overcast
5:53 AM 69.1 °F - 63.0 °F 81% 30.10 in 10.0 mi NNE 11.5 mph - N/A   Overcast
6:53 AM 69.1 °F - 62.1 °F 78% 30.13 in 10.0 mi NNE 10.4 mph - N/A   Overcast
7:53 AM 70.0 °F - 63.0 °F 78% 30.14 in 10.0 mi North 11.5 mph - N/A   Partly Cloudy
8:53 AM 72.0 °F - 63.0 °F 73% 30.17 in 10.0 mi NNE 16.1 mph - N/A   Clear
9:53 AM 75.0 °F - 62.1 °F 64% 30.18 in 10.0 mi NNE 15.0 mph - N/A   Clear
10:53 AM 78.1 °F - 61.0 °F 56% 30.19 in 10.0 mi NE 12.7 mph - N/A   Clear
11:53 AM 80.1 °F 81.1 °F 61.0 °F 52% 30.19 in 10.0 mi NNE 10.4 mph - N/A   Clear
12:53 PM 81.0 °F 81.1 °F 57.9 °F 45% 30.19 in 10.0 mi NE 9.2 mph - N/A   Clear
1:53 PM 82.9 °F 82.8 °F 59.0 °F 44% 30.19 in 10.0 mi NE 9.2 mph - N/A   Clear
2:53 PM 82.0 °F 82.1 °F 59.0 °F 45% 30.18 in 10.0 mi NNE 12.7 mph 18.4 mph N/A   Partly Cloudy
3:53 PM 81.0 °F 81.3 °F 59.0 °F 47% 30.18 in 10.0 mi NE 8.1 mph 18.4 mph N/A   Scattered Clouds
4:53 PM 82.9 °F 82.6 °F 57.9 °F 42% 30.18 in 10.0 mi NNE 11.5 mph - N/A   Scattered Clouds
5:53 PM 82.0 °F 82.1 °F 59.0 °F 45% 30.18 in 10.0 mi NE 9.2 mph 19.6 mph N/A   Partly Cloudy
6:53 PM 80.1 °F 80.9 °F 60.1 °F 50% 30.18 in 10.0 mi NE 4.6 mph - N/A   Clear
7:53 PM 75.0 °F - 64.0 °F 69% 30.19 in 10.0 mi NNE 5.8 mph - N/A   Mostly Cloudy
8:53 PM 73.0 °F - 64.0 °F 73% 30.21 in 10.0 mi NNE 5.8 mph - N/A   Scattered Clouds
9:53 PM 73.0 °F - 63.0 °F 71% 30.24 in 10.0 mi NE 5.8 mph - N/A   Partly Cloudy
10:53 PM 70.0 °F - 64.0 °F 81% 30.25 in 10.0 mi NE 4.6 mph - N/A   Clear
11:53 PM 69.1 °F - 64.0 °F 84% 30.27 in 10.0 mi NE 5.8 mph - N/A   Clear